Location: Home
(42.5358°N, 72.7383°W)
Time: 01:47:00
(UTC-04:00)

IRIDIUM 152 - Pass Details

Date: 12 July 2022
Orbit: 776 x 779 km, 86.4° (Epoch: 10 August)

Event Time Altitude Azimuth Distance (km) Brightness Sun altitude
Exits shadow 02:30:34 10° 133° (SE) 2,297 ? -22.0°
Maximum altitude 02:34:34 24° 81° (E) 1,571 ? -21.7°
Drops below altitude 10° 02:38:41 10° 29° (NNE) 2,339 ? -21.3°
Sets 02:41:25 0° 16° (NNE) 3,272 ? -21.1°
